Date,TemperatureHighF,TemperatureAvgF,TemperatureLowF,DewpointHighF,DewpointAvgF,DewpointLowF,HumidityHigh,HumidityAvg,HumidityLow,PressureMaxIn,PressureMinIn,WindSpeedMaxMPH,WindSpeedAvgMPH,GustSpeedMaxMPH,PrecipitationSumIn
2013-9-1,93.0,66.5,61.0,56.0,29.1,-99.9,64,35,19,0.00,40.00,13,7,16,0.00
2013-9-2,88.0,77.2,64.0,59.0,53.5,48.0,75,46,25,0.00,40.00,12,7,20,0.00
2013-9-3,91.0,78.7,66.0,65.0,57.4,48.0,90,54,22,0.00,40.00,12,5,16,0.00
2013-9-4,91.0,78.2,64.0,60.0,54.5,50.0,77,46,25,0.00,40.00,13,6,24,0.00
2013-9-5,82.0,53.0,65.0,64.0,18.7,-99.9,87,51,44,0.00,40.00,18,6,32,0.00
2013-9-6,71.0,66.2,61.0,59.0,54.7,52.0,83,67,54,0.00,40.00,21,12,37,0.00
2013-9-7,77.0,60.5,52.0,57.0,46.4,-99.9,96,70,38,0.00,40.00,18,6,22,0.00
2013-9-8,85.0,69.7,54.0,57.0,53.6,47.0,96,61,26,0.00,40.00,9,5,13,0.00
2013-9-9,87.0,73.9,60.0,56.0,51.8,47.0,77,49,25,0.00,40.00,8,5,20,0.00
2013-9-10,93.0,73.2,54.0,55.0,50.8,48.0,86,51,21,0.00,40.00,14,7,18,0.00
2013-9-11,96.0,78.6,60.0,55.0,50.9,47.0,72,42,18,0.00,40.00,15,10,22,0.00
2013-9-12,92.0,75.6,61.0,59.0,53.5,49.0,72,48,25,0.00,40.00,12,6,15,0.00
2013-9-13,96.0,78.2,64.0,61.0,55.8,50.0,75,50,22,0.00,40.00,9,6,15,0.00
2013-9-14,94.0,73.5,59.0,59.0,48.7,-99.9,86,50,23,0.00,40.00,13,6,17,0.00
2013-9-15,95.0,77.4,63.0,62.0,52.9,48.0,81,47,20,0.00,40.00,23,8,35,0.00
2013-9-16,80.0,69.2,60.0,62.0,53.4,46.0,93,61,30,0.00,40.00,17,10,24,0.00
2013-9-17,71.0,64.7,57.0,55.0,51.2,41.0,86,62,45,0.00,40.00,13,7,18,0.00
2013-9-18,63.0,58.5,56.0,43.0,41.7,38.0,61,54,46,0.00,40.00,12,9,15,0.00
2013-9-19,78.0,60.5,41.0,46.0,41.5,36.0,92,54,22,0.00,40.00,10,6,13,0.00
2013-9-20,80.0,63.1,44.0,47.0,41.0,35.0,85,49,21,0.00,40.00,14,8,21,0.00
2013-9-21,76.0,64.5,59.0,52.0,38.5,-99.9,74,44,27,0.00,40.00,17,10,27,0.00
2013-9-22,69.0,60.0,54.0,54.0,47.0,41.0,89,64,37,0.00,40.00,22,13,31,0.00
2013-9-23,67.0,60.8,54.0,50.0,44.8,42.0,83,57,40,0.00,40.00,20,15,32,0.00
2013-9-24,65.0,58.0,50.0,49.0,44.6,39.0,86,62,38,0.00,40.00,16,7,21,0.00
2013-9-25,69.0,55.8,42.0,44.0,39.1,31.0,89,58,24,0.00,40.00,15,6,21,0.00
2013-9-26,65.0,54.2,48.0,46.0,41.0,37.0,79,62,38,0.00,40.00,13,7,20,0.00
2013-9-27,65.0,41.8,47.0,49.0,10.4,-99.9,86,52,39,0.00,40.00,20,9,28,0.00
2013-9-28,71.0,46.7,54.0,55.0,13.5,-99.9,89,52,45,0.00,40.00,20,10,29,0.00
2013-9-29,64.0,44.1,53.0,47.0,9.3,-99.9,79,45,42,0.00,40.00,27,16,40,0.00
2013-9-30,66.0,59.9,53.0,48.0,39.1,36.0,58,46,35,0.00,40.00,38,22,52,0.00